Naxing 3A

operational
NORAD ID: 60013 Int'l Des: 2024-110 Owner: TSHUA Country: CN
LEOCIRCULARRETROGRADESSO

About Naxing 3A

Description loading...

Live Position

Loading 3D Globe...

Upcoming Passes

Altitude History

Altitude vs Time

uPlot chart will show altitude changes over time

Two-Line Element Set

1 60013U 24110B 26063.21694655 .00013847 00000-0 62984-3 0 9998
2 60013 97.5703 158.5374 0010168 252.8566 107.1556 15.20799757 96222
Epoch: Mar 4, 2026 • Age: 17 hours

Current Status

Altitude 523.3 km
Velocity 7.60 km/s
Sub-Earth Point 81.51°N, 11.24°W
Launch Date Jun 6, 2024
Age 1.7 years
Type other

Technical Details

Classification Payload
Mass 20.00 kg
Dry Mass 20.00 kg
Total Mass 20.00 kg
Length 0.40 m
Diameter 0.40 m
Span 0.40 m
Shape Box
Manufacturer TSHUA
Bus Type Naxing
Phase Status In Orbit
Owner/State TSHUA/CN

Large Constellations

Loading constellations...